TimeCDT,TemperatureF,Dew PointF,Humidity,Sea Level PressureIn,VisibilityMPH,Wind Direction,Wind SpeedMPH,Gust SpeedMPH,PrecipitationIn,Events,Conditions,WindDirDegrees,DateUTC
12:16 AM,51.8,32.0,47,30.35,10.0,NNE,4.6,-,N/A,,Clear,30,2013-05-24 05:16:00
12:36 AM,51.8,32.0,47,30.35,10.0,ENE,4.6,-,N/A,,Clear,60,2013-05-24 05:36:00
12:57 AM,48.2,32.0,54,30.35,10.0,NE,3.5,-,N/A,,Clear,50,2013-05-24 05:57:00
1:16 AM,48.2,30.2,50,30.35,10.0,ENE,3.5,-,N/A,,Clear,70,2013-05-24 06:16:00
1:36 AM,48.2,32.0,54,30.36,10.0,East,4.6,-,N/A,,Clear,90,2013-05-24 06:36:00
1:57 AM,48.2,33.8,58,30.36,10.0,ENE,3.5,-,N/A,,Clear,60,2013-05-24 06:57:00
2:16 AM,48.2,33.8,58,30.36,10.0,Calm,Calm,-,N/A,,Clear,0,2013-05-24 07:16:00
2:36 AM,46.4,33.8,62,30.36,10.0,Calm,Calm,-,N/A,,Clear,0,2013-05-24 07:36:00
2:57 AM,46.4,32.0,57,30.36,10.0,Calm,Calm,-,N/A,,Clear,0,2013-05-24 07:57:00
3:16 AM,44.6,33.8,66,30.36,10.0,Calm,Calm,-,N/A,,Clear,0,2013-05-24 08:16:00
3:36 AM,42.8,35.6,76,30.37,10.0,Calm,Calm,-,N/A,,Clear,0,2013-05-24 08:36:00
3:57 AM,42.8,35.6,76,30.37,10.0,Calm,Calm,-,N/A,,Clear,0,2013-05-24 08:57:00
4:16 AM,41.0,35.6,81,30.37,10.0,Calm,Calm,-,N/A,,Clear,0,2013-05-24 09:16:00
4:36 AM,41.0,35.6,81,30.38,10.0,Calm,Calm,-,N/A,,Clear,0,2013-05-24 09:36:00
4:57 AM,41.0,35.6,81,30.39,10.0,Calm,Calm,-,N/A,,Clear,0,2013-05-24 09:57:00
5:16 AM,39.2,35.6,87,30.39,10.0,Calm,Calm,-,N/A,,Clear,0,2013-05-24 10:16:00
5:36 AM,41.0,37.4,87,30.39,10.0,Calm,Calm,-,N/A,,Clear,0,2013-05-24 10:36:00
5:57 AM,39.2,37.4,93,30.40,10.0,Calm,Calm,-,N/A,,Clear,0,2013-05-24 10:57:00
6:16 AM,37.4,35.6,93,30.40,10.0,Calm,Calm,-,N/A,,Clear,0,2013-05-24 11:16:00
6:36 AM,41.0,37.4,87,30.41,10.0,Calm,Calm,-,N/A,,Clear,0,2013-05-24 11:36:00
6:57 AM,42.8,37.4,81,30.41,10.0,Calm,Calm,-,N/A,,Clear,0,2013-05-24 11:57:00
7:16 AM,46.4,37.4,71,30.42,10.0,Calm,Calm,-,N/A,,Clear,0,2013-05-24 12:16:00
7:36 AM,48.2,39.2,71,30.42,10.0,SE,6.9,-,N/A,,Clear,130,2013-05-24 12:36:00
7:56 AM,48.2,37.4,66,30.43,10.0,SE,6.9,-,N/A,,Clear,130,2013-05-24 12:56:00
8:16 AM,48.2,37.4,66,30.43,10.0,SE,5.8,-,N/A,,Clear,130,2013-05-24 13:16:00
8:36 AM,50.0,39.2,66,30.43,10.0,SE,5.8,-,N/A,,Clear,140,2013-05-24 13:36:00
8:56 AM,51.8,41.0,67,30.44,10.0,ESE,6.9,-,N/A,,Clear,120,2013-05-24 13:56:00
9:16 AM,53.6,41.0,62,30.44,10.0,ESE,8.1,-,N/A,,Clear,120,2013-05-24 14:16:00
9:36 AM,53.6,41.0,62,30.43,10.0,ESE,5.8,-,N/A,,Clear,110,2013-05-24 14:36:00
9:56 AM,55.4,42.8,63,30.42,10.0,ESE,9.2,-,N/A,,Clear,120,2013-05-24 14:56:00
10:16 AM,55.4,42.8,63,30.41,10.0,ESE,9.2,-,N/A,,Clear,110,2013-05-24 15:16:00
10:36 AM,55.4,41.0,58,30.41,10.0,East,8.1,-,N/A,,Clear,100,2013-05-24 15:36:00
10:57 AM,57.2,41.0,55,30.41,10.0,East,9.2,-,N/A,,Clear,100,2013-05-24 15:57:00
11:16 AM,57.2,41.0,55,30.40,10.0,East,10.4,-,N/A,,Clear,100,2013-05-24 16:16:00
11:36 AM,59.0,42.8,55,30.39,10.0,ESE,8.1,-,N/A,,Clear,120,2013-05-24 16:36:00
11:56 AM,59.0,42.8,55,30.39,10.0,ESE,9.2,-,N/A,,Clear,110,2013-05-24 16:56:00
12:16 PM,60.8,42.8,52,30.39,10.0,ESE,4.6,-,N/A,,Clear,120,2013-05-24 17:16:00
12:36 PM,60.8,42.8,52,30.38,10.0,East,9.2,-,N/A,,Clear,100,2013-05-24 17:36:00
12:56 PM,60.8,41.0,48,30.37,10.0,ESE,9.2,-,N/A,,Clear,120,2013-05-24 17:56:00
1:16 PM,62.6,41.0,45,30.36,10.0,ESE,6.9,-,N/A,,Clear,120,2013-05-24 18:16:00
1:36 PM,62.6,41.0,45,30.35,10.0,East,6.9,-,N/A,,Clear,100,2013-05-24 18:36:00
1:56 PM,62.6,41.0,45,30.34,10.0,East,4.6,-,N/A,,Clear,100,2013-05-24 18:56:00
2:16 PM,62.6,41.0,45,30.33,10.0,East,6.9,-,N/A,,Clear,100,2013-05-24 19:16:00
2:19 PM,62.6,41.0,45,30.33,10.0,ESE,9.2,-,N/A,,Clear,110,2013-05-24 19:19:00
2:57 PM,66.2,42.8,43,30.31,10.0,ESE,9.2,-,N/A,,Clear,110,2013-05-24 19:57:00
3:16 PM,62.6,41.0,45,30.30,10.0,ESE,10.4,-,N/A,,Clear,120,2013-05-24 20:16:00
3:36 PM,66.2,41.0,40,30.29,10.0,ESE,8.1,-,N/A,,Clear,110,2013-05-24 20:36:00
3:57 PM,62.6,39.2,42,30.28,10.0,ESE,10.4,-,N/A,,Clear,110,2013-05-24 20:57:00
4:16 PM,66.2,41.0,40,30.29,10.0,ESE,9.2,-,N/A,,Clear,120,2013-05-24 21:16:00
4:36 PM,66.2,41.0,40,30.28,10.0,South,4.6,-,N/A,,Clear,180,2013-05-24 21:36:00
4:57 PM,64.4,37.4,37,30.27,10.0,SSE,4.6,-,N/A,,Clear,160,2013-05-24 21:57:00
5:16 PM,64.4,37.4,37,30.27,10.0,South,4.6,-,N/A,,Clear,180,2013-05-24 22:16:00
5:36 PM,62.6,35.6,37,30.26,10.0,SSE,6.9,-,N/A,,Clear,150,2013-05-24 22:36:00
5:57 PM,64.4,41.0,42,30.27,10.0,South,3.5,-,N/A,,Clear,170,2013-05-24 22:57:00
6:16 PM,62.6,41.0,45,30.28,10.0,South,3.5,-,N/A,,Clear,170,2013-05-24 23:16:00
6:36 PM,62.6,37.4,39,30.29,10.0,Calm,Calm,-,N/A,,Clear,0,2013-05-24 23:36:00
6:57 PM,64.4,37.4,37,30.31,10.0,Calm,Calm,-,N/A,,Clear,0,2013-05-24 23:57:00
7:16 PM,62.6,39.2,42,30.31,10.0,SW,4.6,-,N/A,,Clear,230,2013-05-25 00:16:00
7:36 PM,62.6,37.4,39,30.30,10.0,Calm,Calm,-,N/A,,Clear,0,2013-05-25 00:36:00
7:57 PM,60.8,39.2,45,30.29,10.0,Calm,Calm,-,N/A,,Clear,0,2013-05-25 00:57:00
8:16 PM,59.0,41.0,51,30.28,10.0,Calm,Calm,-,N/A,,Clear,0,2013-05-25 01:16:00
8:36 PM,59.0,42.8,55,30.27,10.0,SSE,4.6,-,N/A,,Clear,160,2013-05-25 01:36:00
8:57 PM,59.0,41.0,51,30.26,10.0,SSE,5.8,-,N/A,,Clear,150,2013-05-25 01:57:00
9:16 PM,59.0,42.8,55,30.26,10.0,Calm,Calm,-,N/A,,Clear,0,2013-05-25 02:16:00
9:36 PM,59.0,41.0,51,30.27,10.0,Calm,Calm,-,N/A,,Clear,0,2013-05-25 02:36:00
9:57 PM,59.0,41.0,51,30.27,10.0,SSE,4.6,-,N/A,,Scattered Clouds,150,2013-05-25 02:57:00
10:16 PM,59.0,41.0,51,30.28,10.0,Calm,Calm,-,N/A,,Scattered Clouds,0,2013-05-25 03:16:00
10:36 PM,59.0,41.0,51,30.27,10.0,SE,5.8,-,N/A,,Mostly Cloudy,140,2013-05-25 03:36:00
10:56 PM,59.0,41.0,51,30.29,10.0,Calm,Calm,-,N/A,,Mostly Cloudy,0,2013-05-25 03:56:00
11:16 PM,59.0,41.0,51,30.29,10.0,Calm,Calm,-,N/A,,Overcast,0,2013-05-25 04:16:00
11:35 PM,59.0,41.0,51,30.29,10.0,Calm,Calm,-,N/A,Rain,Light Rain,0,2013-05-25 04:35:00
11:56 PM,57.2,42.8,59,30.29,10.0,Calm,Calm,-,N/A,Rain,Rain,0,2013-05-25 04:56:00